Home   Weather   Jacksonville   Past weeks

Flag for USA Past Weather in Jacksonville, Florida, USA — Yesterday and Last 2 Weeks

Now
73 °F

Partly sunny.


Feels Like: 75 °F
Forecast: 60 / 81 °F
Wind: 13 mph from Southwest

Location: Jacksonville Naval Air Station

Current Time: Feb 25, 2017 at 11:27:42 am

Latest Report: Feb 25, 2017 at 10:53 am


Visibility: 10 mi

Pressure: 29.89 "Hg

Humidity: 69%

Dew Point: 62 °F

Location of JacksonvilleLocation

Past Weather in Jacksonville — Graph

°F

Jacksonville Temperature Yesterday

Maximum temperature yesterday: 79 °F (at 2:53 pm)
Minimum temperature yesterday: 62 °F (at 7:53 am)
Average temperature yesterday: 69 °F

High & Low Weather Summary for the Past Weeks

 TemperatureHumidityPressure
High80 °F (Feb 11, 4:53 pm)100% (Feb 12, 5:53 am)30.47 "Hg (Feb 12, 5:53 am)
Low44 °F (Feb 17, 6:53 am)21% (Feb 16, 4:53 pm)29.62 "Hg (Feb 15, 2:53 pm)
Average65 °F73%29.98 "Hg
* Reported Feb 10 9:53 am — Feb 25 9:53 am, Jacksonville, Weather by CustomWeather, © 2017

Note: Actual official high and low records may vary slightly from our data, if they occured in-between our weather recording intervals... More about our weather records

Advertising

Jacksonville Weather History for the Previous 24 Hours

Scroll right to see more
 ConditionsComfort  
Time TempWeatherWind HumidityBarometerVisibility
9:53 am
Sat, Feb 25
69 °FPartly sunny.7 mph81%29.90 "Hg10 mi
9:19 am67 °FBroken clouds.13 mph90%29.92 "Hg9 mi
8:36 am65 °FBroken clouds.10 mph94%29.92 "Hg7 mi
8:08 am64 °FFog.10 mph97%29.91 "Hg2 mi
7:53 am63 °FFog.7 mph100%29.88 "Hg1 mi
7:39 am63 °FFog.8 mph100%29.90 "Hg1 mi
7:31 am63 °FFog.10 mph97%29.90 "Hg1 mi
6:53 am63 °FFog.5 mph97%29.86 "Hg1 mi
6:35 am63 °FFog.3 mph97%29.87 "Hg1 mi
5:53 am63 °FFog.6 mph97%29.83 "Hg4 mi
4:53 am64 °FFog.5 mph97%29.80 "Hg6 mi
4:38 am64 °FFog.6 mph97%29.82 "Hg6 mi
4:08 am64 °FFog.7 mph97%29.82 "Hg1 mi
3:53 am65 °FFog.7 mph97%29.80 "Hg5 mi
3:22 am65 °FFog.6 mph97%29.83 "Hg2 mi
3:05 am65 °FFog.6 mph97%29.82 "Hg6 mi
2:53 am65 °FPassing clouds.6 mph97%29.81 "Hg10 mi
1:53 am65 °FPassing clouds.3 mph94%29.83 "Hg10 mi
12:53 am65 °FPassing clouds.5 mph94%29.85 "Hg10 mi
11:53 pm
Fri, Feb 24
67 °FClear.3 mph90%29.85 "Hg10 mi
10:53 pm67 °FClear.5 mph93%29.85 "Hg10 mi
9:53 pm66 °FClear.6 mph93%29.86 "Hg10 mi
8:53 pm68 °FClear.7 mph87%29.85 "Hg10 mi
7:53 pm70 °FClear.5 mph81%29.85 "Hg10 mi
6:53 pm72 °FPassing clouds.8 mph76%29.84 "Hg10 mi
5:53 pm75 °FPassing clouds.9 mph66%29.82 "Hg10 mi
4:53 pm77 °FScattered clouds.9 mph62%29.81 "Hg10 mi
3:53 pm78 °FScattered clouds.9 mph60%29.80 "Hg10 mi
2:53 pm79 °FScattered clouds.12 mph56%29.80 "Hg10 mi
1:53 pm78 °FScattered clouds.8 mph60%29.81 "Hg10 mi
12:53 pm77 °FScattered clouds.10 mph64%29.83 "Hg10 mi
11:53 am75 °FScattered clouds.8 mph69%29.84 "Hg10 mi
Weather by CustomWeather, © 2017

See weather overviewHow to use our weather pages